#timestamp,LO_Frequency,Hit,StdDev 
1602627975.6,286047007.1,P
1602627995.5,286047007.6,P
1602628015.3,286047007.5,P
1602628035.1,286047005.2,Y
1602628055.9,286046998.3,P
1602628075.7,286046996.7,N
1602628095.6,286046996.7,N
1602628115.4,286046995.4,N
1602628135.2,286046995.1,N
1602628155.1,286046995.4,N
1602628156.0,286046995.4,N
1602628175.8,286046996.6,N
1602628195.7,286047000.8,N
1602628215.5,286047001.0,N
1602628235.3,286046997.3,N
1602628255.2,286046997.3,N
1602628275.9,286046999.3,N
1602628295.7,286046995.5,N
1602628315.6,286046993.3,N
1602628335.4,286046993.3,N
1602628355.3,286046991.7,N
1602628375.1,286046992.7,N
1602628376.0,286046992.7,N
1602628395.8,286046992.2,N
1602628415.7,286046992.3,N
1602628435.5,286046991.9,N
1602628455.3,286046994.4,N
1602628475.2,286046993.5,N
1602628495.0,286046996.6,N
1602628495.9,286046996.6,N
1602628515.8,286046996.9,N
1602628535.6,286046999.5,N
1602628555.4,286046995.8,N
1602628575.3,286046996.3,N
1602628595.1,286046995.2,N
1602628615.9,286046997.7,N
1602628635.7,286046995.7,N
1602628655.5,286046993.6,N
1602628675.4,286046993.9,N
1602628695.2,286046997.5,N
1602628715.0,286046996.9,N
1602628715.9,286046996.9,N
1602628735.8,286046996.6,N
1602628755.6,286046999.4,N
1602628775.5,286046997.1,N
1602628795.3,286046995.8,N
1602628815.1,286046995.3,N
1602628835.9,286046997.9,N
1602628855.7,286046997.4,N
1602628875.5,286046997.0,N
1602628895.4,286046997.0,N
1602628915.2,286046997.7,N
1602628935.1,286046994.9,N
1602628936.0,286046994.9,N
1602628955.8,286046997.0,N
1602628975.6,286046998.9,N
1602628995.5,286047000.9,N
1602629015.3,286047001.1,N
1602629035.1,286046998.4,N
1602629055.9,286046998.3,N
1602629075.7,286046999.3,N
1602629095.6,286046999.3,N
1602629115.4,286046996.8,N
1602629135.2,286046999.4,N
1602629155.1,286046997.6,N
1602629156.0,286046997.6,N
1602629175.8,286046995.1,N
1602629195.6,286046995.1,N
1602629215.5,286046996.4,N
1602629235.3,286046994.0,Y
1602629255.2,286046997.4,P
1602629275.9,286046997.3,P
1602629295.7,286046996.9,P
1602629315.6,286046996.9,Y
1602629335.4,286047000.4,P
1602629355.3,286047000.9,N
1602629375.1,286046998.6,N
1602629376.0,286046998.6,N
1602629395.8,286046999.1,N
1602629415.7,286046996.5,N
1602629435.5,286047002.7,N
1602629455.3,286047000.8,N
1602629475.2,286047000.7,N
1602629495.0,286046999.7,N
1602629495.9,286046999.7,N
1602629515.8,286047001.9,N
1602629535.6,286047002.0,N
1602629555.4,286047001.4,N
1602629575.3,286047003.7,N
1602629595.1,286047004.8,N
1602629615.9,286047006.8,Y
1602629635.7,286047006.4,P
1602629655.5,286047007.2,N
1602629675.4,286047006.2,N
1602629695.2,286047006.3,N
1602629715.0,286047004.6,N
1602629715.9,286047004.6,N
1602629735.8,286047007.6,Y
1602629755.6,286047001.1,P
1602629775.5,286047000.7,N
1602629795.3,286047000.1,N
1602629815.1,286047002.2,N
1602629835.9,286047002.6,N
1602629855.7,286047004.3,N
1602629875.6,286047004.7,N
1602629895.4,286047003.7,N
1602629915.2,286047003.2,N
1602629935.1,286047004.8,N
1602629936.0,286047004.8,N
1602629955.8,286047005.8,Y
1602629975.6,286047002.4,P
1602629995.5,286047002.7,P
